DW8306 Weather Reports


Display with metric or nautical units.
time (UTC)temp
F
wind
direction
speed
MPH
gust
MPH
rain 1hr
in
rain 24hr
in
rain mn
in
humidity
%
barometer
mb
20260506000012 81 179 0.0 2.0 0.00 0.00 0.00 75 1005.1
20260505234508 82 166 0.0 2.0 0.00 0.00 0.00 74 1005.0
20260505233113 82 162 0.0 2.0 0.00 0.00 0.00 74 1005.0
20260505231532 83 199 1.0 4.0 0.00 0.00 0.00 73 1004.8
20260505230023 84 155 0.0 2.0 0.00 0.00 0.00 72 1004.7
20260505224517 84 158 0.0 1.0 0.00 0.00 0.00 73 1004.8
20260505221508 84 180 1.0 4.0 0.00 0.00 0.00 71 1005.1
20260505220009 85 171 0.0 1.0 0.00 0.00 0.00 71 1005.2
20260505214511 84 172 0.0 1.0 0.00 0.00 0.00 73 1005.4
20260505213016 84 131 0.0 2.0 0.00 0.00 0.00 73 1005.3
20260505211607 84 185 0.0 2.0 0.00 0.00 0.00 70 1005.3
20260505210106 85 154 0.0 4.0 0.00 0.00 0.00 70 1005.5
20260505204514 84 160 0.0 5.0 0.00 0.00 0.00 70 1005.2
20260505203014 85 183 0.0 7.0 0.00 0.00 0.00 70 1005.5
20260505201608 84 199 2.0 7.0 0.00 0.00 0.00 69 1005.7
20260505200022 84 152 0.0 4.0 0.00 0.00 0.00 73 1005.9
20260505194516 82 184 1.0 4.0 0.00 0.00 0.00 73 1006.2
20260505193020 81 158 0.0 4.0 0.00 0.00 0.00 73 1006.4
20260505191522 82 155 0.0 4.0 0.00 0.00 0.00 72 1006.5
20260505190109 81 147 2.0 11.0 0.00 0.00 0.00 73 1006.5
20260505184526 81 161 2.0 8.0 0.00 0.00 0.00 74 1006.6
20260505183015 81 183 0.0 4.0 0.00 0.00 0.00 74 1006.4
20260505181505 82 172 0.0 4.0 0.00 0.00 0.00 74 1006.5
20260505180104 79 186 0.0 5.0 0.00 0.00 0.00 76 1006.6
20260505174606 79 160 2.0 5.0 0.00 0.00 0.00 76 1006.7
20260505173019 78 142 0.0 5.0 0.00 0.00 0.00 78 1006.9
20260505171515 77 132 0.0 4.0 0.00 0.00 0.00 79 1007.0
20260505170016 76 161 0.0 2.0 0.00 0.00 0.00 81 1007.1
20260505164511 75 160 0.0 5.0 0.00 0.00 0.00 81 1007.2
20260505163108 75 137 0.0 4.0 0.00 0.00 0.00 82 1007.6
20260505161520 74 133 1.0 3.0 0.00 0.00 0.00 83 1007.5
20260505160117 74 166 0.0 4.0 0.00 0.00 0.00 83 1007.5
20260505153021 73 122 0.0 2.0 0.00 0.00 0.00 85 1007.3
20260505151619 72 164 0.0 2.0 0.00 0.00 0.00 86 1007.6
20260505150106 71 46 0.0 4.0 0.00 0.00 0.00 87 1007.4
20260505140120 70 197 0.0 0.0 0.00 0.00 0.00 88 1007.5
20260505124607 67 70 0.0 0.0 0.00 0.00 0.00 90 1007.3
20260505123011 67 70 0.0 0.0 0.00 0.00 0.00 90 1007.2
20260505121514 66 332 0.0 0.0 0.00 0.00 0.00 90 1006.9
20260505120116 66 332 0.0 0.0 0.00 0.00 0.00 91 1006.9
20260505114603 66 332 0.0 0.0 0.00 0.00 0.00 91 1006.9
20260505113105 65 318 0.0 0.0 0.00 0.00 0.00 91 1006.7
20260505111605 65 58 0.0 0.0 0.00 0.00 0.00 90 1006.7
20260505101508 66 74 0.0 0.0 0.00 0.00 0.00 88 1006.8
20260505100010 66 75 0.0 0.0 0.00 0.00 0.00 87 1006.9
20260505094609 66 74 0.0 0.0 0.00 0.00 0.00 87 1007.1
20260505093020 67 74 0.0 0.0 0.00 0.00 0.00 86 1007.5
20260505091518 67 74 0.0 2.0 0.00 0.00 0.00 86 1007.5
20260505090108 67 58 0.0 1.0 0.00 0.00 0.00 86 1007.5
20260505084511 67 29 0.0 0.0 0.00 0.00 0.00 85 1007.4
20260505083009 67 31 0.0 0.0 0.00 0.00 0.00 85 1007.5
20260505081510 67 12 0.0 0.0 0.00 0.00 0.00 85 1007.6
20260505080110 66 12 0.0 0.0 0.00 0.00 0.00 85 1007.9
20260505074520 66 12 0.0 0.0 0.00 0.00 0.00 85 1007.9
20260505073016 66 12 0.0 0.0 0.00 0.00 0.00 84 1007.9
20260505071620 67 12 0.0 0.0 0.00 0.00 0.00 82 1007.9
20260505070016 67 12 0.0 0.0 0.00 0.00 0.00 81 1008.4
20260505064517 68 33 0.0 0.0 0.00 0.00 0.00 81 1008.4
20260505063120 68 39 0.0 0.0 0.00 0.00 0.00 81 1008.5
20260505061506 68 29 0.0 0.0 0.00 0.00 0.00 80 1008.8
20260505060011 68 9 0.0 0.0 0.00 0.00 0.00 80 1008.9
20260505054610 68 25 0.0 0.0 0.00 0.00 0.00 80 1008.7
20260505053016 68 24 0.0 0.0 0.00 0.00 0.00 80 1008.8
20260505051603 68 11 0.0 1.0 0.00 0.00 0.00 80 1008.8
20260505041507 69 17 0.0 0.0 0.00 0.00 0.00 78 1009.1
20260505040015 69 17 0.0 0.0 0.00 0.00 0.00 78 1009.0
20260505034509 69 17 0.0 0.0 0.00 0.00 0.00 78 1009.2
20260505033019 69 17 0.0 1.0 0.00 0.00 0.00 77 1009.0
20260505031605 70 17 0.0 1.0 0.00 0.00 0.00 76 1009.0
20260505030007 70 17 0.0 0.0 0.00 0.00 0.00 75 1008.8
20260505024509 70 185 0.0 0.0 0.00 0.00 0.00 75 1008.8
20260505023118 71 205 0.0 0.0 0.00 0.00 0.00 74 1008.6
20260505021605 71 205 0.0 1.0 0.00 0.00 0.00 73 1008.4
20260505020107 71 199 0.0 1.0 0.00 0.00 0.00 72 1008.0
20260505014613 72 211 0.0 0.0 0.00 0.00 0.00 72 1008.3
20260505013023 73 211 0.0 0.0 0.00 0.00 0.00 70 1008.0
20260505011522 73 211 0.0 0.0 0.00 0.00 0.00 68 1007.8
20260505010006 74 210 0.0 1.0 0.00 0.00 0.00 65 1007.9
20260505004608 76 210 0.0 0.0 0.00 0.00 0.00 62 1008.0
20260505003009 77 210 0.0 1.0 0.00 0.00 0.00 60 1008.1